Theta_e
286 286 286 285 285 285 285 286 285 284 283 283 282 281 280 279 279 278 277 277 276 276 276 275 275 274 274 273 273 273 272 272 272 272 271 271 271 271 270 270 270 270
286 285 285 285 285 285 285 285 285 285 284 283 283 282 281 280 279 279 278 277 276 276 275 275 274 274 273 273 273 272 272 272 272 271 271 271 271 271 270 270 270 270
286 286 285 285 285 285 285 285 285 285 284 284 283 282 281 280 279 279 278 277 276 276 275 274 274 273 273 273 272 272 272 272 272 271 271 271 271 270 270 270 270 269
287 286 286 285 285 285 285 285 285 285 284 284 283 283 282 280 279 278 278 277 276 275 275 274 274 273 273 272 272 272 272 272 271 271 271 271 270 270 270 270 270 269
287 286 286 285 285 285 285 285 284 284 284 284 283 282 281 280 279 278 277 276 276 275 274 274 273 273 273 272 272 272 272 272 271 271 271 271 270 270 270 270 269 269
287 287 286 286 285 285 285 285 284 284 284 283 283 282 281 279 279 278 277 276 275 275 274 273 273 273 272 272 272 272 272 272 271 271 271 271 270 270 270 269 269 269
287 287 286 286 285 285 284 284 284 284 283 283 282 281 280 279 278 278 277 276 275 275 274 273 273 272 272 272 272 272 272 271 271 271 271 270 270 270 270 269 269 269
288 287 287 286 285 285 284 284 284 283 283 282 281 280 280 279 278 277 277 276 275 275 274 273 273 273 272 272 272 272 272 271 271 271 271 270 270 270 270 269 269 269
288 287 287 286 285 285 284 284 283 283 282 281 280 280 279 278 278 277 277 276 275 275 274 273 273 273 272 272 272 272 271 271 271 271 270 270 270 270 270 269 269 269
288 288 287 286 286 285 284 283 283 282 281 281 280 279 279 278 277 277 277 276 275 274 274 273 273 272 272 272 272 271 271 271 271 270 270 270 270 270 269 269 269 269
289 288 287 286 286 285 284 283 282 282 281 280 279 279 278 277 277 276 276 275 275 274 274 273 273 272 272 272 272 271 271 271 271 270 270 270 269 269 269 269 269 268
289 288 287 286 285 284 283 282 281 281 280 280 279 278 278 277 276 276 275 275 274 274 274 273 273 272 272 272 271 271 271 271 270 270 270 269 269 269 269 268 268 268
289 288 287 286 285 284 283 282 281 280 280 279 279 278 277 276 276 275 275 275 274 274 273 273 272 272 272 272 271 271 271 270 270 270 269 269 269 268 268 268 268 268
289 288 287 286 284 283 282 281 281 280 279 278 278 277 277 276 276 275 275 274 274 273 273 273 272 272 271 271 271 270 270 270 269 269 269 269 268 268 268 268 267 267
288 287 286 284 283 282 281 280 280 279 278 277 277 277 276 276 275 275 274 274 273 273 273 272 272 271 271 271 271 270 270 269 269 269 268 268 268 267 267 267 267 267
286 285 284 283 282 281 280 279 279 278 277 277 276 276 276 275 275 274 274 273 273 272 272 272 271 271 271 271 270 270 269 269 268 268 268 267 267 267 267 266 266 266
284 283 282 281 281 280 280 279 278 277 277 276 276 275 275 275 274 274 273 273 273 272 272 271 271 271 271 270 270 270 269 268 268 267 267 267 266 266 266 266 265 265
282 282 281 280 280 279 279 278 277 277 276 276 275 275 274 274 274 273 273 272 272 272 271 271 271 271 270 270 270 270 270 269 268 267 266 266 266 266 265 265 265 265
281 280 280 279 278 278 278 277 276 276 275 275 274 274 274 273 273 272 272 272 272 272 271 271 271 270 270 270 270 270 270 270 269 268 267 267 266 266 266 266 266 265
280 279 278 278 277 277 277 276 276 275 275 274 274 273 273 272 272 272 271 271 271 272 271 270 270 270 269 270 270 270 270 270 270 269 268 268 267 267 266 266 266 266
278 278 277 277 277 276 276 275 275 274 274 273 273 272 272 272 271 271 271 271 271 271 270 270 269 269 269 269 270 270 270 270 270 269 269 268 268 267 267 267 267 267
277 277 276 276 275 275 275 274 274 273 273 272 272 271 271 271 271 271 271 271 271 270 269 269 269 268 268 269 269 269 269 269 269 269 268 268 268 267 267 267 267 267
276 276 275 275 275 274 274 273 273 272 272 271 271 270 270 270 270 270 270 270 270 269 269 268 268 268 268 268 269 269 269 269 268 268 267 267 267 267 267 267 267 267
276 275 275 274 274 273 273 272 272 271 271 270 270 270 270 270 270 269 269 269 268 268 268 267 267 267 267 267 268 269 269 268 268 267 267 267 267 267 266 266 266 266
275 275 274 274 273 273 272 272 271 270 270 270 270 270 270 269 269 268 268 267 267 267 267 266 266 266 266 266 267 268 268 268 267 267 267 266 266 266 266 266 265 265
275 274 274 273 273 272 271 271 270 270 270 270 270 269 269 268 268 267 267 267 266 266 266 266 266 266 265 266 266 267 268 267 267 267 266 266 266 266 265 265 265 265
Wind_Speed
40 39 38 37 36 35 34 33 32 31 32 32 31 31 32 34 35 36 37 36 34 33 31 28 26 25 24 22 21 20 18 18 18 17 17 17 17 17 17 17 17 16
39 38 38 36 36 36 36 36 35 32 32 32 31 30 30 32 34 37 39 37 35 34 31 29 27 27 25 24 22 21 19 19 19 18 18 18 17 17 18 18 18 17
38 38 39 38 37 37 36 36 34 32 31 30 31 30 29 31 33 36 39 38 36 33 31 30 29 27 27 25 23 22 21 20 20 19 18 18 18 18 18 18 18 18
38 39 39 39 38 36 34 33 32 32 31 30 30 30 28 30 33 35 37 36 35 32 30 30 29 27 27 25 23 22 21 21 20 19 19 18 18 19 18 18 18 18
37 38 38 37 37 35 33 32 32 32 32 30 29 28 28 31 34 35 35 34 33 31 30 29 28 27 26 25 23 22 21 21 20 20 20 19 18 19 19 19 19 19
34 35 36 36 35 34 32 33 33 31 31 30 28 28 29 31 34 35 34 33 32 30 29 29 28 27 26 25 23 22 21 21 20 21 21 20 19 19 18 19 20 20
32 32 33 34 33 33 33 33 32 31 30 29 28 30 31 31 33 34 35 35 33 32 31 30 28 27 25 25 24 23 22 21 20 21 21 20 19 19 20 19 20 20
31 30 30 30 31 31 32 32 32 31 30 29 29 30 31 33 34 35 36 36 36 35 33 31 30 28 26 25 24 23 23 21 21 21 21 21 20 20 21 20 20 21
28 28 28 28 29 30 31 31 30 29 30 32 32 31 32 34 36 36 37 37 37 36 34 32 30 27 26 25 24 24 23 22 21 21 22 22 21 21 21 21 21 21
26 27 27 27 28 29 29 29 29 29 31 32 31 31 33 34 35 36 37 37 37 36 34 32 29 27 26 25 24 24 24 22 21 22 22 22 22 21 21 21 21 22
25 25 25 26 27 27 26 26 28 30 32 32 30 31 32 33 33 35 37 37 37 36 34 31 28 27 26 25 24 23 23 22 22 22 22 22 21 21 21 22 22 23
24 23 24 25 25 24 23 24 26 28 29 30 31 31 31 32 32 34 36 37 37 36 33 30 27 26 25 24 24 23 22 22 22 22 22 22 21 21 22 22 23 24
22 22 22 22 21 21 21 22 24 25 26 28 30 30 31 32 32 33 35 36 35 34 31 29 27 26 24 24 23 23 23 23 22 22 22 21 21 21 22 23 25 26
19 19 18 18 18 19 20 21 22 23 24 25 28 30 31 32 32 33 33 33 32 32 31 29 27 26 24 23 24 24 24 24 23 22 21 21 20 21 22 24 26 27
15 14 15 15 16 17 17 18 20 22 23 24 26 28 29 30 31 32 32 31 31 31 30 29 28 27 26 26 26 26 25 25 24 23 22 21 21 21 23 25 27 28
12 12 12 13 14 15 16 17 19 21 23 24 25 27 28 28 29 31 32 32 31 30 29 28 28 28 28 28 27 27 27 27 27 26 24 23 23 23 24 26 27 29
11 11 11 13 14 15 16 18 19 21 22 23 24 26 27 28 29 29 31 33 32 30 29 28 29 29 29 28 25 24 26 28 29 28 27 26 26 26 27 28 29 30
10 10 11 12 14 15 16 18 19 20 22 23 24 26 28 29 29 29 30 32 32 30 29 28 29 29 28 26 23 23 23 24 25 26 26 27 28 28 30 31 32 32
9 9 10 11 12 14 16 17 19 21 23 24 25 26 27 28 29 29 30 30 31 30 29 29 29 29 27 24 23 23 24 23 23 22 21 23 25 27 30 31 33 35
7 8 10 11 12 14 15 17 20 21 22 23 24 24 26 27 28 29 29 29 29 28 28 29 30 29 27 24 22 23 24 24 24 24 22 21 22 24 27 28 31 35
7 9 10 11 13 14 16 18 20 21 21 22 22 23 25 26 27 28 28 27 27 27 28 29 29 28 26 24 23 23 23 23 23 24 23 22 23 24 25 26 26 28
8 10 11 12 13 14 16 18 19 20 20 20 21 22 23 24 25 25 25 26 26 27 28 29 29 28 25 23 22 23 23 22 21 21 21 21 23 25 26 26 25 23
10 11 12 13 14 15 17 17 18 19 19 20 20 20 21 22 23 23 23 25 26 27 28 29 29 27 25 23 22 21 21 20 18 18 19 20 22 24 24 24 25 25
11 11 12 13 15 16 17 17 17 18 19 20 20 20 19 20 21 21 21 23 25 26 27 28 28 27 26 23 21 21 21 19 18 17 18 19 20 22 21 20 22 24
11 12 12 13 15 16 16 16 16 17 18 19 19 18 18 18 18 19 20 21 23 24 25 26 27 27 26 24 22 21 20 19 18 19 19 19 19 19 19 18 19 21
11 12 12 13 14 15 15 15 15 15 16 17 17 17 16 16 17 17 18 19 20 21 23 25 26 27 27 25 22 21 21 20 20 20 20 19 18 18 18 18 18 20
Wind_Direction
222 221 221 221 221 221 220 218 216 213 210 208 207 206 206 208 209 208 209 208 206 206 205 201 200 199 197 196 197 199 202 204 207 209 210 211 214 216 219 223 226 231
223 222 222 222 222 222 220 220 219 216 213 211 209 209 207 206 208 209 210 207 206 206 202 198 198 196 196 195 196 199 202 204 207 209 210 211 213 215 219 222 225 229
223 222 222 222 222 222 221 221 221 219 218 214 211 209 205 204 204 207 210 207 204 202 197 195 196 195 195 195 195 200 202 204 206 207 209 211 212 215 218 221 224 227
223 223 223 223 224 224 223 222 221 221 220 216 213 208 203 202 201 204 207 205 201 198 194 194 194 193 194 195 196 201 203 205 206 206 209 211 212 214 216 220 223 226
224 224 223 224 225 224 223 223 222 221 219 217 214 207 202 202 202 202 202 199 197 195 191 191 192 192 193 195 198 201 203 206 206 206 209 211 212 213 215 218 222 224
225 224 223 223 223 222 222 223 223 221 219 217 212 205 201 203 204 203 202 198 193 191 190 191 191 192 194 195 199 203 205 206 206 206 209 212 213 213 213 216 220 223
226 224 223 223 223 222 221 222 222 220 218 214 208 205 205 205 205 203 203 201 196 195 195 194 192 191 194 196 200 204 207 207 206 207 210 212 213 214 215 217 220 222
228 226 225 223 222 221 221 221 220 218 216 210 206 206 208 208 206 204 204 204 203 201 198 197 196 194 194 197 201 204 206 207 207 207 210 213 214 214 215 218 221 223
229 227 226 223 221 220 220 219 217 214 214 213 211 210 211 211 211 210 209 208 206 202 199 198 198 195 195 199 202 204 206 207 208 209 211 213 215 215 216 218 222 225
230 228 226 223 221 219 218 216 214 213 215 216 213 213 214 215 216 215 212 208 205 202 200 199 196 194 197 201 203 205 207 209 210 211 214 215 216 216 217 219 222 226
231 228 225 223 220 218 216 213 214 217 219 217 213 213 216 216 215 213 210 207 204 202 201 198 194 195 198 201 204 207 209 211 212 214 216 217 217 217 218 221 224 227
231 228 226 223 219 217 214 210 213 216 217 218 216 214 214 214 211 209 208 206 205 203 201 197 194 196 199 201 205 207 210 213 215 215 217 218 219 219 220 222 226 229
232 230 227 223 217 215 213 211 211 211 212 216 215 212 211 211 209 208 208 206 204 202 199 197 196 197 199 202 205 208 213 216 216 215 218 219 220 221 222 225 230 232
234 231 226 220 215 214 214 213 211 207 208 212 213 211 211 212 209 208 206 204 202 201 199 199 200 198 198 202 207 212 216 218 217 215 217 219 220 222 225 229 233 235
233 228 221 216 212 210 209 208 208 206 207 210 211 211 211 211 210 207 204 200 199 199 200 200 202 203 204 208 213 217 219 220 220 218 218 221 223 225 229 232 236 238
227 220 214 208 207 209 207 205 207 208 208 209 211 211 210 209 207 205 203 201 199 199 200 201 205 209 212 216 219 221 222 222 223 224 224 225 227 230 233 235 238 240
219 214 213 214 215 216 214 213 213 211 210 211 211 211 210 208 205 203 203 203 202 201 202 205 210 216 220 221 219 220 224 227 229 231 231 232 233 234 237 240 243 245
216 213 215 218 220 220 218 216 215 213 212 212 211 211 210 208 206 204 204 204 203 204 207 212 218 223 226 224 218 217 224 230 233 234 236 238 239 240 243 246 249 250
214 211 212 215 219 220 218 215 214 214 214 213 212 212 210 208 207 206 205 205 206 210 215 220 224 228 229 224 221 224 227 230 234 236 235 236 239 243 248 251 252 252
211 212 216 220 221 219 217 216 215 216 216 215 213 212 209 208 207 206 206 208 212 218 223 225 229 233 232 227 226 230 232 234 238 239 238 238 239 241 245 249 250 249
215 220 223 224 223 220 219 220 219 218 216 215 213 211 210 207 206 206 209 214 221 225 228 230 234 237 236 232 230 232 234 237 241 242 243 244 244 243 243 245 246 245
229 231 230 228 226 224 224 223 221 219 216 213 210 209 208 207 207 211 216 221 227 229 231 234 237 240 238 234 233 235 237 240 242 243 245 246 246 246 246 247 246 242
244 240 238 235 232 230 228 225 222 218 214 210 207 204 205 208 212 218 224 228 231 233 235 237 240 242 240 235 234 236 238 239 241 243 245 246 247 247 247 247 246 243
255 251 247 242 238 234 231 226 221 215 211 209 206 205 209 216 221 226 230 234 237 239 240 241 244 247 245 240 238 238 237 238 240 242 244 246 246 247 246 246 247 245
264 259 253 248 242 237 232 225 218 212 209 210 211 213 220 226 230 233 235 237 241 244 244 245 247 250 250 245 241 239 238 238 240 240 242 243 245 247 247 246 246 246
269 263 257 251 245 238 231 222 214 210 211 214 219 224 229 233 235 237 238 239 243 246 248 248 249 251 253 250 244 240 239 238 239 239 239 240 243 245 246 246 245 245